Change the Weather History Date:

Monday, October 7, 2013

  Actual Average Record
Temperature  
Mean Temperature 56 °F -  
Max Temperature 68 °F 69 °F 84 °F (2007)
Min Temperature 43 °F 49 °F 33 °F (2012)
Degree Days  
Heating Degree Days 10    
Growing Degree Days 6 (Base 50)    
Moisture  
Dew Point 44 °F    
Average Humidity 70    
Maximum Humidity 97    
Minimum Humidity 38    
Precipitation  
Precipitation 0.00 in - - ()
Sea Level Pressure  
Sea Level Pressure 30.13 in    
Wind  
Wind Speed 3 mph (NNW)    
Max Wind Speed 13 mph    
Max Gust Speed -    
Visibility 10 miles    
Events      
Averages and records for this station are not official NWS values.
T = Trace of Precipitation, MM = Missing Value Source: NWS Daily Summary

Daily Weather History Graph

Daily Weather History Graph

Search for Another Location

Airport or City:

Trip Planner

Search our weather history database for the weather conditions in past years. The results will help you decide how hot, cold, wet, or windy it might be!

Date:

Astronomy

Oct. 07, 2013 Rise Set
Actual Time 7:16 AM CDT 6:50 PM CDT
Civil Twilight 6:51 AM CDT 7:16 PM CDT
Nautical Twilight 6:21 AM CDT 7:46 PM CDT
Astronomical Twilight 5:51 AM CDT 8:16 PM CDT
Moon 10:02 AM CDT (10/7) 8:42 PM CDT (10/7)
Length of Visible Light 12h 25m
Length of Day
11h 34m
Waxing Crescent, 9% of the Moon is Illuminated
Oct 7
Waxing Crescent
Oct 11
First Quarter
Oct 18
Full
Oct 26
Last Quarter
Nov 3
New

Hourly Weather History & Observations

Time (CDT) Temp. Windchill Dew Point Humidity Pressure Visibility Wind Dir Wind Speed Gust Speed Precip Events Conditions
12:57 AM 46.9 °F - 44.1 °F 90% 30.04 in 10.0 mi NNE 5.8 mph - N/A   Clear
1:57 AM 46.9 °F - 44.1 °F 90% 30.04 in 10.0 mi Calm Calm - N/A   Clear
2:57 AM 46.9 °F - 44.1 °F 90% 30.05 in 10.0 mi Calm Calm - N/A   Clear
3:57 AM 46.0 °F - 44.1 °F 93% 30.06 in 10.0 mi Calm Calm - N/A   Clear
4:57 AM 46.0 °F - 44.1 °F 93% 30.08 in 10.0 mi Calm Calm - N/A   Clear
5:57 AM 44.1 °F - 43.0 °F 96% 30.10 in 10.0 mi Calm Calm - N/A   Clear
6:57 AM 44.1 °F 42.5 °F 42.1 °F 93% 30.11 in 10.0 mi West 3.5 mph - N/A   Clear
7:57 AM 43.0 °F 41.3 °F 42.1 °F 97% 30.13 in 10.0 mi West 3.5 mph - N/A   Clear
8:57 AM 50.0 °F - 46.0 °F 86% 30.15 in 10.0 mi NW 5.8 mph - N/A   Clear
9:57 AM 55.9 °F - 45.0 °F 67% 30.17 in 10.0 mi WNW 9.2 mph - N/A   Clear
10:57 AM 59.0 °F - 41.0 °F 51% 30.17 in 10.0 mi NNW 12.7 mph - N/A   Clear
11:57 AM 63.0 °F - 39.0 °F 41% 30.17 in 10.0 mi North 8.1 mph - N/A   Clear
12:57 PM 64.0 °F - 39.9 °F 41% 30.16 in 10.0 mi NNW 8.1 mph - N/A   Clear
1:57 PM 66.0 °F - 39.9 °F 38% 30.15 in 10.0 mi Calm Calm - N/A   Clear
2:57 PM 68.0 °F - 42.1 °F 39% 30.14 in 10.0 mi North 8.1 mph - N/A   Clear
3:57 PM 68.0 °F - 43.0 °F 40% 30.13 in 10.0 mi NE 3.5 mph - N/A   Clear
4:57 PM 68.0 °F - 43.0 °F 40% 30.13 in 10.0 mi North 6.9 mph - N/A   Clear
5:57 PM 66.9 °F - 44.1 °F 44% 30.12 in 7.0 mi NNE 4.6 mph - N/A   Clear
6:57 PM 64.9 °F - 46.9 °F 52% 30.13 in 9.0 mi Calm Calm - N/A   Clear
7:57 PM 59.0 °F - 50.0 °F 72% 30.15 in 10.0 mi Calm Calm - N/A   Clear
8:57 PM 55.9 °F - 48.9 °F 77% 30.15 in 9.0 mi Calm Calm - N/A   Clear
9:57 PM 54.0 °F - 48.9 °F 83% 30.16 in 9.0 mi Calm Calm - N/A   Clear
10:57 PM 52.0 °F - 48.0 °F 86% 30.16 in 4.0 mi Calm Calm - N/A   Clear
11:57 PM 51.1 °F - 48.9 °F 92% 30.15 in 10.0 mi Calm Calm - N/A   Clear